Location: Newark
(45.6000°N, 12.8833°E)
Time: 09:46:00
(UTC+00:00)

Transit 2A Rocket - All Passes

Search period start: 18 November 2019 00:00
Search period end: 28 November 2019 00:00
Orbit: 594 x 909 km, 66.7° (Epoch: 17 November)

Date Brightness Start Highest point End Pass type
(mag) Time Alt. Az. Time Alt. Az. Time Alt. Az.
18 Nov - 03:37:03 10° NNE 03:38:13 11° NNE 03:39:24 10° NE visible
18 Nov - 05:17:27 10° NNW 05:21:44 55° NE 05:26:10 10° SE visible
18 Nov - 07:00:55 10° WNW 07:03:52 18° WSW 07:06:55 10° SSW daylight
18 Nov - 19:55:09 10° SSE 19:58:57 24° ESE 20:02:35 10° ENE night (unlit)
18 Nov - 21:36:45 10° SW 21:41:16 45° NW 21:45:33 10° NNE night (unlit)
19 Nov - 04:35:08 10° NNW 04:39:05 33° NE 04:43:08 10° ESE visible
19 Nov - 06:17:41 10° NW 06:21:33 31° WSW 06:25:36 10° S daylight
19 Nov - 19:14:25 10° SE 19:16:41 13° ESE 19:18:53 10° ENE night (unlit)
19 Nov - 20:53:56 10° SW 20:58:41 77° WNW 21:03:09 10° NNE night (unlit)
19 Nov - 22:39:29 10° WNW 22:41:56 14° NW 22:44:19 10° N night (unlit)
20 Nov - 03:52:59 10° N 03:56:19 21° NE 03:59:43 10° E visible
20 Nov - 05:34:52 10° NW 05:39:09 57° WSW 05:43:39 10° SSE visible
20 Nov - 20:11:30 10° SSW 20:16:11 61° ESE 20:20:35 10° NE night (unlit)
20 Nov - 21:55:33 10° W 21:59:03 21° NW 22:02:26 10° N night (unlit)
21 Nov - 03:11:06 10° N 03:13:26 14° NE 03:15:49 10° ENE visible
21 Nov - 04:52:17 10° NNW 04:56:40 80° ENE 05:01:15 10° SE visible
21 Nov - 06:36:54 10° W 06:38:36 12° WSW 06:40:20 10° SW daylight
21 Nov - 19:29:29 10° S 19:33:46 34° ESE 19:37:49 10° NE night (unlit)
21 Nov - 21:12:06 10° WSW 21:16:17 32° NW 21:20:17 10° NNE night (unlit)
22 Nov - 04:09:53 10° NNW 04:14:05 45° NE 04:18:27 10° SE visible
22 Nov - 05:52:58 10° WNW 05:56:21 22° WSW 05:59:52 10° SSW daylight
22 Nov - 18:48:04 10° SSE 18:51:26 19° ESE 18:54:40 10° ENE night (unlit)
22 Nov - 20:29:02 10° SW 20:33:38 53° NW 20:37:58 10° NNE night (unlit)
22 Nov - 22:15:56 10° NW 22:17:09 11° NNW 22:18:21 10° NNW night (unlit)
23 Nov - 03:27:37 10° NNW 03:31:24 28° NE 03:35:18 10° ESE visible
23 Nov - 05:09:55 10° NW 05:14:00 38° WSW 05:18:17 10° S visible
23 Nov - 18:08:15 10° ESE 18:09:11 11° ESE 18:10:07 10° E night (unlit)
23 Nov - 19:46:21 10° SSW 19:51:05 88° ESE 19:55:31 10° NNE night (unlit)
23 Nov - 21:31:22 10° WNW 21:34:11 16° NW 21:36:57 10° N night (unlit)
24 Nov - 02:45:32 10° N 02:48:36 18° NE 02:51:44 10° E visible
24 Nov - 04:27:12 10° NW 04:31:34 71° WSW 04:36:09 10° SSE visible
24 Nov - 19:04:03 10° SSW 19:08:36 49° ESE 19:12:54 10° NE night (unlit)
24 Nov - 20:47:37 10° W 20:51:21 24° NW 20:54:57 10° N night (unlit)
25 Nov - 02:03:49 10° N 02:05:41 12° NE 02:07:33 10° ENE visible
25 Nov - 03:44:41 10° NNW 03:49:02 66° NE 03:53:37 10° SE visible
25 Nov - 05:28:34 10° WNW 05:31:06 15° WSW 05:33:42 10° SW visible
25 Nov - 18:22:13 10° S 18:26:13 28° ESE 18:30:01 10° NE visible
25 Nov - 20:04:18 10° WSW 20:08:37 38° NW 20:12:45 10° NNE night (unlit)
26 Nov - 03:02:20 10° NNW 03:06:26 38° NE 03:10:42 10° ESE visible
26 Nov - 04:45:06 10° NW 04:48:48 27° WSW 04:52:41 10° S visible
26 Nov - 17:41:07 10° SE 17:43:55 16° ESE 17:46:37 10° ENE visible
26 Nov - 19:21:22 10° SW 19:26:00 65° NW 19:30:23 10° NNE visible
26 Nov - 21:07:30 10° WNW 21:09:22 12° NW 21:11:14 10° N night (unlit)
27 Nov - 02:20:07 10° N 02:23:43 24° NE 02:27:24 10° E visible
27 Nov - 04:02:12 10° NW 04:06:25 47° WSW 04:10:53 10° S visible
27 Nov - 18:38:48 10° SSW 18:43:29 73° ESE 18:47:52 10° NE visible
27 Nov - 20:23:19 10° W 20:26:28 18° NW 20:29:32 10° N night (unlit)
